Weather History for PARC - March, 2013

Change the Weather History Date:

Saturday, March 2, 2013

  Actual Average Record
Temperature  
Mean Temperature -8 °F -  
Max Temperature 1 °F - - ()
Min Temperature -16 °F - - ()
Degree Days  
Heating Degree Days 72    
Moisture  
Dew Point -19 °F    
Average Humidity 50    
Maximum Humidity 100    
Minimum Humidity 27    
Precipitation  
Precipitation 0.00 in - - ()
Sea Level Pressure  
Sea Level Pressure 30.02 in    
Wind  
Wind Speed 1 mph (NE)    
Max Wind Speed 8 mph    
Max Gust Speed -    
Visibility 10 miles    
Events      
T = Trace of Precipitation, MM = Missing Value Source: NWS Daily Summary

Daily Weather History Graph

Daily Weather History Graph

Search for Another Location

Airport or City:

Trip Planner

Search our weather history database for the weather conditions in past years. The results will help you decide how hot, cold, wet, or windy it might be!

Date:

Astronomy

Mar. 02, 2013 Rise Set
Actual Time 7:55 AM AKST 5:54 PM AKST
Civil Twilight 6:59 AM AKST 6:51 PM AKST
Nautical Twilight 5:54 AM AKST 7:56 PM AKST
Astronomical Twilight 4:46 AM AKST 9:05 PM AKST
Moon 1:27 AM AKST (3/2) 7:32 AM AKST (3/2)
Length of Visible Light 11h 51m
Length of Day
9h 58m
Waning Gibbous, 72% of the Moon is Illuminated
Mar 2
Waning Gibbous
Mar 4
Last Quarter
Mar 11
New
Mar 19
First Quarter
Mar 27
Full

Hourly Weather History & Observations

Time (AKST) Temp. Windchill Dew Point Humidity Pressure Visibility Wind Dir Wind Speed Gust Speed Precip Events Conditions
12:16 AM -5.8 °F - -16.6 °F 60% 29.88 in 10.0 mi Calm Calm - N/A   Clear
12:36 AM -5.8 °F - - N/A% 29.88 in 10.0 mi Calm Calm - N/A   Partly Cloudy
12:56 AM -4.0 °F - - N/A% 29.89 in 10.0 mi Calm Calm - N/A   Partly Cloudy
1:16 AM -5.8 °F - - N/A% 29.90 in 10.0 mi Calm Calm - N/A   Clear
1:36 AM -5.8 °F - -29.2 °F 32% 29.90 in 10.0 mi Calm Calm - N/A   Mostly Cloudy
1:56 AM -5.8 °F - -23.8 °F 42% 29.91 in 10.0 mi Calm Calm - N/A   Mostly Cloudy
2:16 AM -5.8 °F - -22.0 °F 46% 29.91 in 10.0 mi Calm Calm - N/A   Scattered Clouds
3:16 AM -5.8 °F -21.2 °F - N/A% 29.93 in 10.0 mi ENE 8.1 mph - N/A   Mostly Cloudy
3:36 AM -2.2 °F -16.8 °F -27.4 °F 29% 29.93 in 10.0 mi ESE 8.1 mph - N/A   Mostly Cloudy
3:56 AM -2.2 °F -14.2 °F -27.4 °F 29% 29.93 in 10.0 mi ENE 5.8 mph - N/A   Partly Cloudy
4:16 AM -2.2 °F - -27.4 °F 29% 29.94 in 10.0 mi Calm Calm - N/A   Scattered Clouds
4:36 AM -2.2 °F - -23.8 °F 35% 29.94 in 10.0 mi Calm Calm - N/A   Scattered Clouds
4:56 AM -2.2 °F - -16.6 °F 50% 29.95 in 10.0 mi Calm Calm - N/A   Partly Cloudy
5:16 AM -4.0 °F - -14.8 °F 60% 29.95 in 10.0 mi Calm Calm - N/A   Clear
5:36 AM -4.0 °F - -11.2 °F 71% 29.95 in 10.0 mi Calm Calm - N/A   Clear
5:56 AM -5.8 °F - -18.4 °F 55% 29.96 in 10.0 mi Calm Calm - N/A   Clear
6:16 AM -5.8 °F -18.4 °F -9.4 °F 84% 29.96 in 10.0 mi East 5.8 mph - N/A   Mostly Cloudy
6:36 AM -5.8 °F -16.7 °F - N/A% 29.96 in 10.0 mi NNE 4.6 mph - N/A   Mostly Cloudy
6:56 AM -5.8 °F -16.7 °F - N/A% 29.96 in 10.0 mi NNE 4.6 mph - N/A   Mostly Cloudy
7:16 AM -7.6 °F -16.5 °F - N/A% 29.97 in 10.0 mi NE 3.5 mph - N/A   Mostly Cloudy
7:36 AM -7.6 °F - -27.4 °F 38% 29.97 in 10.0 mi Calm Calm - N/A   Overcast
7:56 AM -7.6 °F -18.8 °F -23.8 °F 45% 29.98 in 10.0 mi North 4.6 mph - N/A   Scattered Clouds
8:16 AM -7.6 °F - -16.6 °F 65% 29.98 in 10.0 mi Calm Calm - N/A   Mostly Cloudy
8:36 AM -5.8 °F - -14.8 °F 65% 29.98 in 10.0 mi Calm Calm - N/A   Overcast
8:56 AM -5.8 °F - -13.0 °F 71% 29.99 in 10.0 mi Calm Calm - N/A   Mostly Cloudy
9:16 AM -5.8 °F -16.7 °F -20.2 °F 50% 29.99 in 10.0 mi NE 4.6 mph - N/A   Partly Cloudy
9:36 AM -5.8 °F - -5.8 °F 100% 30.00 in 10.0 mi Calm Calm - N/A   Clear
9:56 AM -7.6 °F - - N/A% 30.00 in 9.0 mi Calm Calm - N/A   Clear
10:16 AM -9.4 °F - - N/A% 30.01 in 10.0 mi Calm Calm - N/A   Clear
10:36 AM -7.6 °F - - N/A% 30.01 in 10.0 mi Calm Calm - N/A   Clear
10:56 AM -5.8 °F - -27.4 °F 35% 30.02 in 10.0 mi Calm Calm - N/A   Clear
11:16 AM -4.0 °F - -22.0 °F 42% 30.02 in 10.0 mi Calm Calm - N/A   Clear
11:36 AM -2.2 °F -10.4 °F -14.8 °F 55% 30.02 in 10.0 mi NE 3.5 mph - N/A   Clear
11:56 AM -2.2 °F - -14.8 °F 55% 30.03 in 10.0 mi Calm Calm - N/A   Clear
12:16 PM -2.2 °F - -9.4 °F 71% 30.03 in 10.0 mi Calm Calm - N/A   Clear
12:36 PM -2.2 °F - -11.2 °F 66% 30.04 in 10.0 mi Calm Calm - N/A   Clear
12:56 PM -2.2 °F - - N/A% 30.04 in 10.0 mi Calm Calm - N/A   Clear
1:16 PM -0.4 °F - -23.8 °F 32% 30.04 in 10.0 mi Calm Calm - N/A   Clear
1:36 PM -0.4 °F - -25.6 °F 30% 30.04 in 10.0 mi Calm Calm - N/A   Clear
1:56 PM -0.4 °F - -27.4 °F 27% 30.04 in 10.0 mi Calm Calm - N/A   Clear
2:16 PM 1.4 °F - -20.2 °F 36% 30.04 in 10.0 mi Calm Calm - N/A   Clear
2:36 PM 1.4 °F - -14.8 °F 47% 30.04 in 10.0 mi Calm Calm - N/A   Clear
2:56 PM 1.4 °F - -11.2 °F 56% 30.04 in 10.0 mi Calm Calm - N/A   Clear
3:16 PM 1.4 °F - -9.4 °F 61% 30.04 in 10.0 mi Calm Calm - N/A   Clear
3:36 PM 1.4 °F - -16.6 °F 43% 30.04 in 10.0 mi Calm Calm - N/A   Clear
3:56 PM 1.4 °F - -20.2 °F 36% 30.04 in 10.0 mi Calm Calm - N/A   Clear
4:16 PM 1.4 °F - -22.0 °F 33% 30.04 in 10.0 mi Calm Calm - N/A   Clear
4:36 PM 1.4 °F - -18.4 °F 39% 30.05 in 10.0 mi Calm Calm - N/A   Clear
4:56 PM 1.4 °F - -23.8 °F 30% 30.05 in 10.0 mi Calm Calm - N/A   Clear
5:16 PM 1.4 °F - -25.6 °F 27% 30.05 in 10.0 mi Calm Calm - N/A   Clear
5:36 PM -0.4 °F - -22.0 °F 36% 30.06 in 10.0 mi Calm Calm - N/A   Clear
5:56 PM -2.2 °F - -16.6 °F 50% 30.06 in 10.0 mi Calm Calm - N/A   Clear
6:16 PM -4.0 °F - -14.8 °F 60% 30.07 in 10.0 mi Calm Calm - N/A   Clear
6:36 PM -2.2 °F - -5.8 °F 85% 30.08 in 10.0 mi Calm Calm - N/A   Clear
6:56 PM -5.8 °F - -31.0 °F 29% 30.08 in 10.0 mi Calm Calm - N/A   Clear
7:16 PM -4.0 °F -12.4 °F - N/A% 30.08 in 10.0 mi ESE 3.5 mph - N/A   Clear
7:36 PM -7.6 °F - - N/A% 30.09 in 10.0 mi Calm Calm - N/A   Clear
7:56 PM -7.6 °F - - N/A% 30.09 in 10.0 mi Calm Calm - N/A   Clear
8:16 PM -7.6 °F - - N/A% 30.10 in 10.0 mi Calm Calm - N/A   Clear
8:36 PM -9.4 °F - - N/A% 30.10 in 10.0 mi Calm Calm - N/A   Clear
8:56 PM -7.6 °F - -25.6 °F 41% 30.10 in 10.0 mi Calm Calm - N/A   Clear
9:16 PM -9.4 °F - -23.8 °F 49% 30.11 in 10.0 mi Calm Calm - N/A   Clear
9:36 PM -11.2 °F - -23.8 °F 54% 30.11 in 10.0 mi Calm Calm - N/A   Clear
9:56 PM -11.2 °F - -20.2 °F 64% 30.12 in 10.0 mi Calm Calm - N/A   Clear
10:16 PM -13.0 °F -22.7 °F - N/A% 30.12 in 9.0 mi ENE 3.5 mph - N/A   Clear
10:36 PM -14.8 °F -24.8 °F -16.6 °F 92% 30.13 in 10.0 mi NNE 3.5 mph - N/A   Clear
10:56 PM -14.8 °F - - N/A% 30.14 in 10.0 mi Calm Calm - N/A   Clear
11:16 PM -16.6 °F - - N/A% 30.14 in 10.0 mi Calm Calm - N/A   Clear
11:36 PM -14.8 °F - - N/A% 30.14 in 10.0 mi Calm Calm - N/A   Clear
11:56 PM -16.6 °F - - N/A% 30.15 in 8.0 mi Calm Calm - N/A   Clear